OCN301 GCFV-EDDF

Flight info

Callsign OCN301
Flight time N/A
Altitude 36000
Route VASTO UN858 AKUDA DCT OBOLO DCT PESAS DCT OSLEP N858 OXACA M30 HIJ N10 VTB N871 TOPTU DCT TOU DCT GAI DCT MEN DCT NINUN DCT LATAM DCT ETREK DCT LTP DCT SOPLO DCT OMASI DCT KINNI DCT SOSAL DCT KORED DCT BERSU DCT DITON/N0437F370 DCT LADOL/N0439F380 T163 EMPAX EMPAX5B
Aircraft A320/M-SDE3FGHIRWY/LB1

Departure

Time N/A
Airport Fuerteventura Airport (GCFV)

Arrival

Time 2026-05-03 20:52
Airport Frankfurt Main Airport (EDDF)
Time Latitude Longitude Altitude Speed Heading
2026-05-03 20:15 47.63321 8.56795 36072 ft 466 kts 24°
2026-05-03 20:15 47.69162 8.60962 36076 ft 466 kts 24°
2026-05-03 20:16 47.75001 8.65152 36056 ft 467 kts 24°
2026-05-03 20:16 47.80846 8.69369 36047 ft 467 kts 24°
2026-05-03 20:17 47.86691 8.73575 36043 ft 467 kts 24°
2026-05-03 20:17 47.92541 8.77798 36049 ft 467 kts 24°
2026-05-03 20:18 47.98361 8.81999 36048 ft 467 kts 24°
2026-05-03 20:18 48.04206 8.86244 36048 ft 467 kts 24°
2026-05-03 20:19 48.10044 8.90493 36048 ft 467 kts 24°
2026-05-03 20:19 48.15969 8.94459 36037 ft 465 kts 15°
2026-05-03 20:20 48.22232 8.96178 36027 ft 460 kts
2026-05-03 20:20 48.28612 8.97139 36018 ft 461 kts
2026-05-03 20:21 48.35009 8.98101 36014 ft 462 kts
2026-05-03 20:21 48.41408 8.99072 35780 ft 461 kts
2026-05-03 20:21 48.44603 8.99561 35089 ft 462 kts
2026-05-03 20:22 48.47807 9.00055 34342 ft 464 kts
2026-05-03 20:22 48.51022 9.00547 33533 ft 466 kts
2026-05-03 20:22 48.54247 9.01036 32884 ft 464 kts
2026-05-03 20:22 48.57447 9.01527 32294 ft 460 kts
2026-05-03 20:23 48.60618 9.02020 31729 ft 457 kts
2026-05-03 20:23 48.63768 9.02525 31175 ft 454 kts
2026-05-03 20:23 48.66888 9.03146 30638 ft 451 kts
2026-05-03 20:23 48.69945 9.03864 30115 ft 448 kts
2026-05-03 20:24 48.73010 9.04646 29526 ft 445 kts
2026-05-03 20:24 48.76058 9.05442 28915 ft 442 kts
2026-05-03 20:24 48.79085 9.06223 28360 ft 439 kts
2026-05-03 20:24 48.82087 9.06980 27806 ft 435 kts
2026-05-03 20:25 48.85062 9.07707 27274 ft 431 kts
2026-05-03 20:25 48.88014 9.08409 26743 ft 427 kts
2026-05-03 20:25 48.90951 9.08999 26229 ft 423 kts
2026-05-03 20:25 48.93873 9.09444 25717 ft 419 kts
2026-05-03 20:26 48.96766 9.09805 25224 ft 416 kts
2026-05-03 20:26 48.99643 9.10143 24733 ft 413 kts
2026-05-03 20:26 49.02461 9.10487 24258 ft 410 kts
2026-05-03 20:26 49.05288 9.10853 23780 ft 407 kts
2026-05-03 20:27 49.08094 9.11236 23273 ft 404 kts
2026-05-03 20:27 49.10883 9.11632 22766 ft 400 kts
2026-05-03 20:27 49.13647 9.12032 22272 ft 397 kts
2026-05-03 20:27 49.16391 9.12432 21804 ft 393 kts
2026-05-03 20:28 49.19114 9.12831 21345 ft 391 kts
2026-05-03 20:28 49.21809 9.13223 20890 ft 387 kts
2026-05-03 20:28 49.24482 9.13609 20450 ft 384 kts
2026-05-03 20:28 49.27135 9.13992 20011 ft 381 kts
2026-05-03 20:29 49.29749 9.14646 19585 ft 380 kts 11°
2026-05-03 20:29 49.32316 9.15557 19175 ft 378 kts 11°
2026-05-03 20:29 49.34865 9.16459 18776 ft 375 kts 11°
2026-05-03 20:29 49.37362 9.17341 18387 ft 372 kts 11°
2026-05-03 20:30 49.39882 9.18233 17925 ft 370 kts 11°
2026-05-03 20:30 49.42391 9.19123 17445 ft 369 kts 11°
2026-05-03 20:30 49.44889 9.20012 16978 ft 368 kts 10°
2026-05-03 20:30 49.47374 9.20892 16527 ft 366 kts 10°
2026-05-03 20:31 49.49851 9.21772 16086 ft 364 kts 10°
2026-05-03 20:31 49.52318 9.22652 15658 ft 363 kts 10°
2026-05-03 20:31 49.54774 9.23530 15237 ft 361 kts 10°
2026-05-03 20:31 49.57224 9.24407 14823 ft 360 kts 10°
2026-05-03 20:32 49.59656 9.25280 14374 ft 360 kts 10°
2026-05-03 20:32 49.62056 9.26138 14059 ft 357 kts 10°
2026-05-03 20:32 49.64463 9.27000 13654 ft 354 kts 10°
2026-05-03 20:32 49.66843 9.27854 13423 ft 346 kts 10°
2026-05-03 20:33 49.69151 9.28687 13286 ft 336 kts 10°
2026-05-03 20:33 49.71402 9.29498 13076 ft 329 kts 10°
2026-05-03 20:33 49.73631 9.30297 12756 ft 327 kts 10°
2026-05-03 20:33 49.75846 9.31089 12399 ft 326 kts 11°
2026-05-03 20:34 49.78050 9.31882 12035 ft 325 kts 10°
2026-05-03 20:34 49.80253 9.32676 11702 ft 324 kts 10°
2026-05-03 20:34 49.82427 9.33318 11355 ft 320 kts 358°
2026-05-03 20:34 49.84560 9.32800 11030 ft 306 kts 332°
2026-05-03 20:35 49.86298 9.31067 10651 ft 291 kts 307°
2026-05-03 20:35 49.87393 9.28540 10299 ft 277 kts 285°
2026-05-03 20:35 49.87964 9.25708 9945 ft 274 kts 279°
2026-05-03 20:35 49.88496 9.22882 9566 ft 273 kts 280°
2026-05-03 20:36 49.89030 9.20066 9173 ft 271 kts 280°
2026-05-03 20:36 49.89563 9.17270 8801 ft 270 kts 280°
2026-05-03 20:36 49.90092 9.14500 8538 ft 264 kts 280°
2026-05-03 20:36 49.90600 9.11852 8415 ft 254 kts 280°
2026-05-03 20:37 49.91093 9.09274 8234 ft 246 kts 279°
2026-05-03 20:37 49.91574 9.06741 7936 ft 243 kts 279°
2026-05-03 20:37 49.92050 9.04236 7586 ft 242 kts 279°
2026-05-03 20:37 49.92523 9.01735 7233 ft 241 kts 279°
2026-05-03 20:38 49.92990 8.99257 7015 ft 238 kts 279°
2026-05-03 20:38 49.93456 8.96782 7006 ft 240 kts 279°
2026-05-03 20:38 49.93925 8.94289 7010 ft 241 kts 279°
2026-05-03 20:38 49.94449 8.91816 7013 ft 245 kts 289°
2026-05-03 20:39 49.95449 8.89660 6856 ft 256 kts 309°
2026-05-03 20:39 49.96975 8.88147 6490 ft 268 kts 333°
2026-05-03 20:39 49.98831 8.87643 6123 ft 277 kts 358°
2026-05-03 20:39 50.00710 8.88333 5796 ft 280 kts 24°
2026-05-03 20:40 50.02257 8.90136 5539 ft 276 kts 51°
2026-05-03 20:40 50.03202 8.92645 5309 ft 266 kts 72°
2026-05-03 20:40 50.03834 8.95337 4990 ft 264 kts 72°
2026-05-03 20:40 50.04456 8.98015 4655 ft 262 kts 71°
2026-05-03 20:41 50.05077 9.00675 4355 ft 260 kts 71°
2026-05-03 20:41 50.05699 9.03324 4037 ft 259 kts 71°
2026-05-03 20:41 50.06317 9.05945 3982 ft 259 kts 71°
2026-05-03 20:41 50.06935 9.08585 3977 ft 260 kts 71°
2026-05-03 20:42 50.07547 9.11212 3969 ft 254 kts 71°
2026-05-03 20:42 50.08130 9.13712 3969 ft 241 kts 70°
2026-05-03 20:42 50.08972 9.15908 3966 ft 237 kts 40°
2026-05-03 20:42 50.10378 9.17160 3966 ft 232 kts
2026-05-03 20:43 50.11902 9.17140 3968 ft 217 kts 333°
2026-05-03 20:43 50.13075 9.15864 3973 ft 201 kts 298°
2026-05-03 20:43 50.13690 9.13955 3969 ft 196 kts 286°
2026-05-03 20:43 50.14163 9.11965 3971 ft 196 kts 284°
2026-05-03 20:44 50.14616 9.09959 3971 ft 196 kts 283°
2026-05-03 20:44 50.14788 9.07906 3972 ft 190 kts 259°
2026-05-03 20:44 50.14476 9.05912 3976 ft 189 kts 253°
2026-05-03 20:44 50.14127 9.03935 3975 ft 186 kts 253°
2026-05-03 20:45 50.13823 9.02046 3974 ft 175 kts 261°
2026-05-03 20:45 50.13658 9.00211 4004 ft 169 kts 255°
2026-05-03 20:45 50.13341 8.98452 3991 ft 168 kts 251°
2026-05-03 20:45 50.12976 8.96747 3985 ft 168 kts 249°
2026-05-03 20:46 50.12586 8.95030 3981 ft 168 kts 249°
2026-05-03 20:46 50.12189 8.93316 3984 ft 168 kts 249°
2026-05-03 20:46 50.11788 8.91598 3990 ft 169 kts 249°
2026-05-03 20:46 50.11386 8.89881 3989 ft 168 kts 249°
2026-05-03 20:47 50.10985 8.88173 3992 ft 168 kts 249°
2026-05-03 20:47 50.10583 8.86465 3969 ft 168 kts 249°
2026-05-03 20:47 50.10180 8.84751 3827 ft 169 kts 249°
2026-05-03 20:47 50.09778 8.83041 3629 ft 168 kts 249°
2026-05-03 20:48 50.09374 8.81325 3421 ft 169 kts 249°
2026-05-03 20:48 50.08971 8.79618 3201 ft 168 kts 249°
2026-05-03 20:48 50.08569 8.77914 2967 ft 167 kts 249°
2026-05-03 20:48 50.08174 8.76242 2756 ft 167 kts 250°
2026-05-03 20:49 50.07773 8.74544 2537 ft 168 kts 250°
2026-05-03 20:49 50.07454 8.72792 2326 ft 169 kts 261°
2026-05-03 20:49 50.07358 8.70979 2121 ft 164 kts 259°
2026-05-03 20:49 50.07003 8.69355 1830 ft 157 kts 250°
2026-05-03 20:50 50.06661 8.67766 1544 ft 151 kts 251°
2026-05-03 20:50 50.06320 8.66318 1433 ft 137 kts 249°
2026-05-03 20:50 50.05989 8.64944 1293 ft 135 kts 250°
2026-05-03 20:50 50.05661 8.63589 1065 ft 131 kts 248°
2026-05-03 20:51 50.05353 8.62281 918 ft 131 kts 250°
2026-05-03 20:51 50.05054 8.60919 741 ft 132 kts 249°
2026-05-03 20:51 50.04730 8.59593 565 ft 131 kts 248°
2026-05-03 20:51 50.04416 8.58289 378 ft 130 kts 248°
2026-05-03 20:52 50.04142 8.57160 365 ft 78 kts 251°
2026-05-03 20:52 50.04019 8.56629 360 ft 34 kts 249°
2026-05-03 20:52 50.03993 8.56360 353 ft 16 kts 280°
2026-05-03 20:52 50.04004 8.56257 353 ft 4 kts 281°
2026-05-03 20:53 50.04010 8.56214 360 ft 4 kts 281°
2026-05-03 20:53 50.04018 8.56151 355 ft 9 kts 280°
2026-05-03 20:53 50.04045 8.56041 359 ft 12 kts 311°
2026-05-03 20:53 50.04098 8.55970 359 ft 8 kts 331°
2026-05-03 20:54 50.04130 8.55948 354 ft 7 kts 340°
2026-05-03 20:54 50.04253 8.55994 358 ft 16 kts 69°
2026-05-03 20:54 50.04300 8.56194 362 ft 21 kts 71°
2026-05-03 20:55 50.04347 8.56392 362 ft 18 kts 70°
2026-05-03 20:55 50.04390 8.56571 360 ft 18 kts 69°
2026-05-03 20:55 50.04439 8.56774 360 ft 20 kts 70°
2026-05-03 20:55 50.04487 8.56973 362 ft 23 kts 70°
2026-05-03 20:56 50.04546 8.57226 359 ft 26 kts 70°
2026-05-03 20:56 50.04597 8.57436 358 ft 18 kts 69°
2026-05-03 20:56 50.04638 8.57608 358 ft 17 kts 70°
2026-05-03 20:56 50.04668 8.57732 359 ft 20 kts 69°
2026-05-03 20:57 50.04720 8.57912 361 ft 16 kts 41°
2026-05-03 20:57 50.04819 8.57892 364 ft 14 kts 329°
2026-05-03 20:57 50.04864 8.57778 365 ft 8 kts 295°
2026-05-03 20:57 50.04903 8.57762 362 ft 6 kts 15°
2026-05-03 20:58 50.04933 8.57780 358 ft 0 kts 21°
2026-05-03 20:58 50.04934 8.57780 358 ft 1 kts 21°
2026-05-03 20:58 50.04950 8.57790 358 ft 1 kts 21°